Track YAOGAN-30 D now! 10-day predictions YAOGAN-30 D is classified as:
1 43028U 17075A 24342.55674063 .00006793 00000-0 56794-3 0 9997 2 43028 34.9958 52.4657 0002623 133.3371 226.7555 14.97866326383581